Time,TemperatureF,DewpointF,PressureIn,WindDirection,WindDirectionDegrees,WindSpeedMPH,WindSpeedGustMPH,Humidity,HourlyPrecipIn,Conditions,Clouds,dailyrainin,SoftwareType,DateUTC
2013-08-16 00:00:00,61.6,60.0,25.93,SE,129,3.0,5.0,95,0.00,,,0.00,weatherlink.com 1.10,2013-08-16 06:00:00,
2013-08-16 00:15:00,61.3,60.0,25.93,SSE,150,3.0,5.0,95,0.00,,,0.00,weatherlink.com 1.10,2013-08-16 06:15:00,
2013-08-16 00:30:00,60.9,60.0,25.93,SSE,167,4.0,6.0,95,0.00,,,0.00,weatherlink.com 1.10,2013-08-16 06:30:00,
2013-08-16 00:45:00,60.7,60.0,25.92,SW,217,2.0,5.0,96,0.00,,,0.00,weatherlink.com 1.10,2013-08-16 06:45:00,
2013-08-16 01:00:00,60.5,59.0,25.92,SE,145,3.0,5.0,96,0.00,,,0.00,weatherlink.com 1.10,2013-08-16 07:00:00,
2013-08-16 01:15:00,60.7,60.0,25.92,SW,224,6.0,8.0,97,0.00,,,0.00,weatherlink.com 1.10,2013-08-16 07:15:00,
2013-08-16 01:30:00,61.8,61.0,25.92,South,179,4.0,11.0,97,0.00,,,0.00,weatherlink.com 1.10,2013-08-16 07:30:00,
2013-08-16 01:45:00,61.9,61.0,25.91,SSW,203,8.0,10.0,97,0.00,,,0.00,weatherlink.com 1.10,2013-08-16 07:45:00,
2013-08-16 02:00:00,62.1,61.0,25.91,SSW,201,6.0,12.0,97,0.00,,,0.00,weatherlink.com 1.10,2013-08-16 08:00:00,
2013-08-16 02:15:00,62.4,62.0,25.91,South,169,7.0,11.0,97,0.00,,,0.00,weatherlink.com 1.10,2013-08-16 08:15:00,
2013-08-16 02:30:00,62.5,62.0,25.91,SW,219,5.0,12.0,97,0.00,,,0.00,weatherlink.com 1.10,2013-08-16 08:30:00,
2013-08-16 02:45:00,62.6,62.0,25.91,SSW,200,6.0,11.0,97,0.00,,,0.00,weatherlink.com 1.10,2013-08-16 08:45:00,
2013-08-16 03:00:00,62.9,62.0,25.90,SSE,163,5.0,9.0,97,0.00,,,0.00,weatherlink.com 1.10,2013-08-16 09:00:00,
2013-08-16 03:15:00,63.0,62.0,25.90,SW,225,4.0,8.0,97,0.00,,,0.00,weatherlink.com 1.10,2013-08-16 09:15:00,
2013-08-16 03:30:00,63.0,62.0,25.90,SSW,195,4.0,8.0,96,0.00,,,0.00,weatherlink.com 1.10,2013-08-16 09:30:00,
2013-08-16 03:45:00,63.0,62.0,25.90,SW,219,4.0,7.0,95,0.00,,,0.00,weatherlink.com 1.10,2013-08-16 09:45:00,
2013-08-16 04:00:00,62.8,61.0,25.90,SW,223,5.0,8.0,95,0.00,,,0.00,weatherlink.com 1.10,2013-08-16 10:00:00,
2013-08-16 04:15:00,62.4,61.0,25.89,SW,229,6.0,7.0,95,0.00,,,0.00,weatherlink.com 1.10,2013-08-16 10:15:00,
2013-08-16 04:30:00,62.1,61.0,25.90,SSW,208,5.0,7.0,95,0.00,,,0.00,weatherlink.com 1.10,2013-08-16 10:30:00,
2013-08-16 04:45:00,62.2,61.0,25.89,SSW,193,7.0,9.0,95,0.00,,,0.00,weatherlink.com 1.10,2013-08-16 10:45:00,
2013-08-16 05:00:00,62.1,61.0,25.90,SSW,206,6.0,10.0,95,0.00,,,0.00,weatherlink.com 1.10,2013-08-16 11:00:00,
2013-08-16 05:15:00,62.2,61.0,25.90,SSW,193,5.0,8.0,95,0.00,,,0.00,weatherlink.com 1.10,2013-08-16 11:15:00,
2013-08-16 05:30:00,62.2,61.0,25.90,SW,231,5.0,10.0,94,0.00,,,0.00,weatherlink.com 1.10,2013-08-16 11:30:00,
2013-08-16 05:45:00,62.2,61.0,25.90,SW,215,4.0,7.0,95,0.00,,,0.00,weatherlink.com 1.10,2013-08-16 11:45:00,
2013-08-16 06:00:00,62.1,61.0,25.90,SSE,166,5.0,9.0,95,0.00,,,0.00,weatherlink.com 1.10,2013-08-16 12:00:00,
2013-08-16 06:15:00,62.2,61.0,25.91,SSE,162,7.0,9.0,95,0.00,,,0.00,weatherlink.com 1.10,2013-08-16 12:15:00,
2013-08-16 06:30:00,62.1,60.0,25.91,SSW,210,5.0,12.0,93,0.00,,,0.00,weatherlink.com 1.10,2013-08-16 12:30:00,
2013-08-16 06:45:00,62.2,61.0,25.91,South,188,6.0,8.0,94,0.00,,,0.00,weatherlink.com 1.10,2013-08-16 12:45:00,
2013-08-16 07:00:00,62.2,60.0,25.91,SW,220,6.0,11.0,93,0.00,,,0.00,weatherlink.com 1.10,2013-08-16 13:00:00,
2013-08-16 07:15:00,61.9,60.0,25.91,SW,222,5.0,9.0,93,0.00,,,0.00,weatherlink.com 1.10,2013-08-16 13:15:00,
2013-08-16 07:30:00,61.8,60.0,25.91,South,179,7.0,9.0,92,0.00,,,0.00,weatherlink.com 1.10,2013-08-16 13:30:00,
2013-08-16 07:45:00,61.9,60.0,25.92,SSW,201,7.0,9.0,93,0.00,,,0.00,weatherlink.com 1.10,2013-08-16 13:45:00,
2013-08-16 08:00:00,61.6,60.0,25.92,SSE,160,5.0,12.0,93,0.00,,,0.00,weatherlink.com 1.10,2013-08-16 14:00:00,
2013-08-16 08:16:00,61.4,59.0,25.92,South,179,8.0,14.0,92,0.00,,,0.00,weatherlink.com 1.10,2013-08-16 14:16:00,
2013-08-16 08:31:00,61.7,59.0,25.92,SSW,210,6.0,13.0,92,0.00,,,0.00,weatherlink.com 1.10,2013-08-16 14:31:00,
2013-08-16 08:46:00,62.0,59.0,25.92,SSW,197,4.0,12.0,91,0.00,,,0.00,weatherlink.com 1.10,2013-08-16 14:46:00,
2013-08-16 09:01:00,62.4,60.0,25.92,SW,232,6.0,12.0,90,0.00,,,0.00,weatherlink.com 1.10,2013-08-16 15:01:00,
2013-08-16 09:16:00,62.8,60.0,25.93,SW,228,6.0,11.0,90,0.00,,,0.00,weatherlink.com 1.10,2013-08-16 15:16:00,
2013-08-16 09:31:00,63.3,60.0,25.93,SW,228,6.0,12.0,88,0.00,,,0.00,weatherlink.com 1.10,2013-08-16 15:31:00,
2013-08-16 09:46:00,64.1,60.0,25.93,SSE,159,9.0,10.0,86,0.00,,,0.00,weatherlink.com 1.10,2013-08-16 15:46:00,
2013-08-16 10:01:00,64.6,60.0,25.93,SSW,194,7.0,14.0,85,0.00,,,0.00,weatherlink.com 1.10,2013-08-16 16:01:00,
2013-08-16 10:16:00,65.4,61.0,25.93,SSW,210,3.0,12.0,84,0.00,,,0.00,weatherlink.com 1.10,2013-08-16 16:16:00,
2013-08-16 10:31:00,66.9,61.0,25.93,South,170,8.0,12.0,80,0.00,,,0.00,weatherlink.com 1.10,2013-08-16 16:31:00,
2013-08-16 10:46:00,68.1,61.0,25.93,WSW,238,5.0,15.0,78,0.00,,,0.00,weatherlink.com 1.10,2013-08-16 16:46:00,
2013-08-16 11:01:00,69.5,62.0,25.93,SSW,212,14.0,14.0,76,0.00,,,0.00,weatherlink.com 1.10,2013-08-16 17:01:00,
2013-08-16 11:16:00,70.7,62.0,25.93,SE,139,7.0,10.0,74,0.00,,,0.00,weatherlink.com 1.10,2013-08-16 17:16:00,
2013-08-16 11:31:00,71.4,62.0,25.92,SW,217,8.0,18.0,71,0.00,,,0.00,weatherlink.com 1.10,2013-08-16 17:31:00,
2013-08-16 11:46:00,72.3,62.0,25.92,SSW,210,6.0,16.0,69,0.00,,,0.00,weatherlink.com 1.10,2013-08-16 17:46:00,
2013-08-16 12:01:00,73.0,62.0,25.92,SSE,159,10.0,16.0,68,0.00,,,0.00,weatherlink.com 1.10,2013-08-16 18:01:00,
2013-08-16 12:16:00,73.6,62.0,25.91,SSE,153,11.0,16.0,67,0.00,,,0.00,weatherlink.com 1.10,2013-08-16 18:16:00,
2013-08-16 12:31:00,74.4,61.0,25.90,SW,221,7.0,15.0,64,0.00,,,0.00,weatherlink.com 1.10,2013-08-16 18:31:00,
2013-08-16 12:46:00,74.8,61.0,25.90,WSW,246,8.0,17.0,63,0.00,,,0.00,weatherlink.com 1.10,2013-08-16 18:46:00,
2013-08-16 13:01:00,75.4,61.0,25.90,South,184,10.0,19.0,61,0.00,,,0.00,weatherlink.com 1.10,2013-08-16 19:01:00,
2013-08-16 13:16:00,77.0,63.0,25.89,South,189,10.0,15.0,62,0.00,,,0.00,weatherlink.com 1.10,2013-08-16 19:16:00,
2013-08-16 13:31:00,77.6,62.0,25.89,South,173,11.0,19.0,59,0.00,,,0.00,weatherlink.com 1.10,2013-08-16 19:31:00,
2013-08-16 13:46:00,78.5,61.0,25.89,South,188,6.0,16.0,55,0.00,,,0.00,weatherlink.com 1.10,2013-08-16 19:46:00,
2013-08-16 14:01:00,78.4,61.0,25.89,SSE,167,8.0,15.0,55,0.00,,,0.00,weatherlink.com 1.10,2013-08-16 20:01:00,
2013-08-16 14:16:00,79.5,60.0,25.89,SSW,210,11.0,15.0,52,0.00,,,0.00,weatherlink.com 1.10,2013-08-16 20:16:00,
2013-08-16 14:32:00,79.8,59.0,25.89,SSW,195,7.0,15.0,49,0.00,,,0.00,weatherlink.com 1.10,2013-08-16 20:32:00,
2013-08-16 14:47:00,80.7,61.0,25.88,SSE,160,12.0,18.0,51,0.00,,,0.00,weatherlink.com 1.10,2013-08-16 20:47:00,
2013-08-16 15:02:00,81.2,60.0,25.88,SW,221,12.0,15.0,49,0.00,,,0.00,weatherlink.com 1.10,2013-08-16 21:02:00,
2013-08-16 15:17:00,81.4,60.0,25.88,South,175,9.0,16.0,48,0.00,,,0.00,weatherlink.com 1.10,2013-08-16 21:17:00,
2013-08-16 15:32:00,82.0,60.0,25.88,South,170,11.0,16.0,47,0.00,,,0.00,weatherlink.com 1.10,2013-08-16 21:32:00,
2013-08-16 15:47:00,81.9,59.0,25.87,SE,126,9.0,17.0,45,0.00,,,0.00,weatherlink.com 1.10,2013-08-16 21:47:00,
2013-08-16 16:02:00,82.9,58.0,25.87,SSE,168,11.0,16.0,43,0.00,,,0.00,weatherlink.com 1.10,2013-08-16 22:02:00,
2013-08-16 16:17:00,82.8,57.0,25.87,SW,214,8.0,12.0,42,0.00,,,0.00,weatherlink.com 1.10,2013-08-16 22:17:00,
2013-08-16 16:32:00,82.9,59.0,25.87,SSW,202,10.0,14.0,44,0.00,,,0.00,weatherlink.com 1.10,2013-08-16 22:32:00,
2013-08-16 16:47:00,83.1,60.0,25.87,SSW,193,9.0,12.0,45,0.00,,,0.00,weatherlink.com 1.10,2013-08-16 22:47:00,
2013-08-16 17:02:00,82.7,57.0,25.87,SE,139,5.0,11.0,42,0.00,,,0.00,weatherlink.com 1.10,2013-08-16 23:02:00,
2013-08-16 17:17:00,83.0,57.0,25.87,SSE,165,9.0,11.0,41,0.00,,,0.00,weatherlink.com 1.10,2013-08-16 23:17:00,
2013-08-16 17:32:00,82.9,57.0,25.87,SW,221,4.0,13.0,41,0.00,,,0.00,weatherlink.com 1.10,2013-08-16 23:32:00,
2013-08-16 17:47:00,82.7,58.0,25.86,SSW,200,9.0,11.0,43,0.00,,,0.00,weatherlink.com 1.10,2013-08-16 23:47:00,
2013-08-16 18:02:00,81.8,58.0,25.86,SE,142,12.0,13.0,44,0.00,,,0.00,weatherlink.com 1.10,2013-08-17 00:02:00,
2013-08-16 18:17:00,81.2,57.0,25.86,SSE,159,9.0,13.0,44,0.00,,,0.00,weatherlink.com 1.10,2013-08-17 00:17:00,
2013-08-16 18:32:00,80.3,58.0,25.86,SSE,148,9.0,13.0,46,0.00,,,0.00,weatherlink.com 1.10,2013-08-17 00:32:00,
2013-08-16 18:47:00,79.2,59.0,25.86,SSE,159,6.0,8.0,51,0.00,,,0.00,weatherlink.com 1.10,2013-08-17 00:47:00,
2013-08-16 19:02:00,78.3,59.0,25.86,SSE,150,7.0,9.0,52,0.00,,,0.00,weatherlink.com 1.10,2013-08-17 01:02:00,
2013-08-16 19:17:00,76.9,59.0,25.86,SSE,162,6.0,9.0,55,0.00,,,0.00,weatherlink.com 1.10,2013-08-17 01:17:00,
2013-08-16 19:32:00,75.2,60.0,25.87,SSE,156,5.0,7.0,59,0.00,,,0.00,weatherlink.com 1.10,2013-08-17 01:32:00,
2013-08-16 19:47:00,73.6,60.0,25.87,SSE,156,7.0,9.0,63,0.00,,,0.00,weatherlink.com 1.10,2013-08-17 01:47:00,
2013-08-16 20:02:00,72.0,60.0,25.88,SSE,160,5.0,9.0,65,0.00,,,0.00,weatherlink.com 1.10,2013-08-17 02:02:00,
2013-08-16 20:17:00,70.3,60.0,25.88,SE,145,5.0,7.0,69,0.00,,,0.00,weatherlink.com 1.10,2013-08-17 02:17:00,
2013-08-16 20:32:00,69.3,60.0,25.89,SE,132,4.0,5.0,71,0.00,,,0.00,weatherlink.com 1.10,2013-08-17 02:32:00,
2013-08-16 20:47:00,69.0,59.0,25.89,SE,146,1.0,4.0,71,0.00,,,0.00,weatherlink.com 1.10,2013-08-17 02:47:00,
2013-08-16 21:02:00,68.6,59.0,25.90,SE,139,2.0,4.0,72,0.00,,,0.00,weatherlink.com 1.10,2013-08-17 03:02:00,
2013-08-16 21:17:00,67.8,59.0,25.90,South,174,4.0,5.0,74,0.00,,,0.00,weatherlink.com 1.10,2013-08-17 03:17:00,
2013-08-16 21:32:00,67.9,60.0,25.90,South,184,10.0,11.0,75,0.00,,,0.00,weatherlink.com 1.10,2013-08-17 03:32:00,
2013-08-16 21:47:00,67.2,60.0,25.91,SSW,210,5.0,11.0,77,0.00,,,0.00,weatherlink.com 1.10,2013-08-17 03:47:00,
2013-08-16 22:02:00,66.9,60.0,25.91,SSW,195,8.0,12.0,79,0.00,,,0.00,weatherlink.com 1.10,2013-08-17 04:02:00,
2013-08-16 22:17:00,67.3,61.0,25.91,SSW,207,9.0,14.0,80,0.00,,,0.00,weatherlink.com 1.10,2013-08-17 04:17:00,
2013-08-16 22:32:00,66.9,61.0,25.91,SSW,203,7.0,16.0,81,0.00,,,0.00,weatherlink.com 1.10,2013-08-17 04:32:00,
2013-08-16 22:47:00,66.1,61.0,25.91,SW,226,5.0,13.0,83,0.00,,,0.00,weatherlink.com 1.10,2013-08-17 04:47:00,
2013-08-16 23:02:00,65.8,61.0,25.91,SSE,167,6.0,13.0,84,0.00,,,0.00,weatherlink.com 1.10,2013-08-17 05:02:00,
2013-08-16 23:17:00,65.3,61.0,25.91,SW,214,10.0,12.0,86,0.00,,,0.00,weatherlink.com 1.10,2013-08-17 05:17:00,
2013-08-16 23:32:00,64.7,61.0,25.91,SSW,204,6.0,12.0,87,0.00,,,0.00,weatherlink.com 1.10,2013-08-17 05:32:00,
2013-08-16 23:47:00,64.5,61.0,25.91,SW,232,9.0,12.0,88,0.00,,,0.00,weatherlink.com 1.10,2013-08-17 05:47:00,